Location: Haram ta Haram Freeway
(35.0583°N, 51.4202°E)
Time: 13:55:33
(UTC+04:30)

CAS-4A - Pass Details

Date: 08 July 2020
Orbit: 528 x 545 km, 43.0° (Epoch: 02 August)

Event Time Altitude Azimuth Distance (km) Brightness Sun altitude
Exits shadow 02:51:56 24° 83° (E) 1,140 ? -27.6°
Drops below altitude 10° 02:53:44 10° 72° (ENE) 1,785 ? -27.4°
Sets 02:56:00 0° 66° (ENE) 2,674 ? -27.2°
